Miscellaneous Local Product
Issued by NWS Hastings, NE

Home | Current Version | Previous Version | Graphics & Text | Print | Product List | Glossary On
Versions: 1 2 3 4 5 6 7 8 9 10 11 12 13 14 15 16 17 18 19 20 21 22 23 24 25 26 27 28 29 30 31 32 33 34 35 36 37 38 39 40 41 42 43 44 45 46 47 48 49 50
000
AXUS43 KGID 241802
MISGRI

GID CWA HOURLY WEATHER ROUNDUP
NATIONAL WEATHER SERVICE HASTINGS NE
100 PM CDT SUN MAY 24 2015

NOTE: "FAIR" INDICATES FEW OR NO CLOUDS BELOW 12,000 FEET WITH NO
SIGNIFICANT WEATHER AND/OR OBSTRUCTIONS TO VISIBILITY.

...SOUTH CENTRAL NEBRASKA...

CITY           SKY/WX    TMP DP  RH WIND       PRES   REMARKS
GRAND ISLAND   CLOUDY    65  57  75 CALM      29.86R
HASTINGS       CLOUDY    64  57  78 SW7       29.86S
KEARNEY        CLOUDY    63  55  77 SW5       29.88R
ORD            CLOUDY    63  57  81 N5        29.84F
YORK           CLOUDY    66  59  77 CALM      29.85S
AURORA         CLOUDY    66  60  81 W3        29.85S
LEXINGTON      CLOUDY    63  58  83 CALM      29.87S
HOLDREGE       CLOUDY    61  57  85 SW9       29.87R
HEBRON         CLOUDY    67  58  72 W6        29.86S

...NEBRASKA PANHANDLE...

CITY           SKY/WX    TMP DP  RH WIND       PRES   REMARKS
CHADRON        PTSUNNY   63  54  72 NE8       29.88S
ALLIANCE       PTSUNNY   61  52  72 VRB3      29.86F
SCOTTSBLUFF    PTSUNNY   63  51  65 SE7       29.88S
SIDNEY         MOSUNNY   59  50  72 E5        29.89F

...WESTERN AND NORTH CENTRAL NEBRASKA...

CITY           SKY/WX    TMP DP  RH WIND       PRES   REMARKS
VALENTINE      CLOUDY    59  57  93 SE10      29.89S
AINSWORTH      CLOUDY    59  59  99 E8        29.89S FOG
ONEILL         CLOUDY    62  61  95 NE10      29.86F FOG
BROKEN BOW     CLOUDY    64  56  75 CALM      29.86F
IMPERIAL       SUNNY     66  52  60 CALM      29.86F
NORTH PLATTE   PTSUNNY   64  54  69 E5        29.87F
MCCOOK         CLOUDY    66  56  70 E6        29.85S

...EASTERN NEBRASKA...

CITY           SKY/WX    TMP DP  RH WIND       PRES   REMARKS
NORFOLK        CLOUDY    63  60  90 E5        29.82F
SO SIOUX CITY  CLOUDY    63  58  83 E8        29.83F
TEKAMAH        CLOUDY    66  61  84 S5        29.82F
COLUMBUS       CLOUDY    63  55  77 CALM      29.86F
ALBION         CLOUDY    63  60  90 CALM      29.84F
OMAHA EPPLEY   CLOUDY    65  62  90 S5        29.82F FOG
OFFUTT AFB     CLOUDY    67  63  87 SW7       29.82S
MILLARD        CLOUDY    65  62  88 CALM      29.83S
LINCOLN        CLOUDY    67  60  78 W6        29.84F
NEBRASKA CITY  CLOUDY    67  64  90 SW6       29.85R
BEATRICE       CLOUDY    68  61  79 SW5       29.85S
FALLS CITY     LGT RAIN  70  63  78 S9        29.85F

...NORTHERN KANSAS...

CITY           SKY/WX    TMP DP  RH WIND       PRES   REMARKS
GOODLAND       PTSUNNY   64  55  72 SE5       29.87F
HILL CITY      CLOUDY    62  58  86 S6        29.87F
NORTON         CLOUDY    61  54  77 CALM      29.86S
PHILLIPSBURG   CLOUDY    66  59  77 S5        29.87F
SMITH CENTER   CLOUDY    64  57  77 S3        29.87F
HAYS           CLOUDY    66  55  68 S7        29.86S
RUSSELL        CLOUDY    68  60  75 S8        29.85S
CONCORDIA      CLOUDY    65  59  81 S14       29.87S
SALINA         CLOUDY    67  59  75 S10       29.87F
TOPEKA         CLOUDY    70  62  76 S5        29.88F



USA.gov is the U.S. government's official web portal to all federal, state and local government web resources and services.